Retour au catalogue

OSCAR 10

ActifRadio amateurHEO
NORAD 14129·PAYLOAD·🇩🇪 Germany

Lancé Jun 16, 1983 depuis Guiana Space Centre

Loading…

Prochains Passages (prochaines 24 heures)

TLE

FraisSource: Space-Track

Époque: Sep 10, 2026, 19:39 UTC

1 14129U 83058B   26253.81923402 -.00000299  00000-0  00000+0 0  9998
2 14129  25.9748 205.5539 5983154 139.1490 286.0555  2.05871418297257

Suivez OSCAR 10 en temps réel avec AllMySat

Download on the App Store